, NV

(GMT )
Las Vegas

Weather History for KBJN - October, 2012

Change the Weather History Date:

Thursday, October 18, 2012

  Actual Average Record
Temperature  
Mean Temperature 51 °F -  
Max Temperature 69 °F - - ()
Min Temperature 33 °F - - ()
Degree Days  
Heating Degree Days 14    
Growing Degree Days 1 (Base 50)    
Moisture  
Dew Point 20 °F    
Average Humidity 35    
Maximum Humidity 64    
Minimum Humidity 12    
Precipitation  
Precipitation 0.00 in - - ()
Sea Level Pressure  
Sea Level Pressure 29.85 in    
Wind  
Wind Speed 5 mph (NW)    
Max Wind Speed 12 mph    
Max Gust Speed -    
Visibility 10 miles    
Events      
T = Trace of Precipitation, MM = Missing Value Source: NWS Daily Summary

Daily Weather History Graph

Daily Weather History Graph

Search for Another Location

Airport or City:

Trip Planner

Search our weather history database for the weather conditions in past years. The results will help you decide how hot, cold, wet, or windy it might be!

Date:

Astronomy

Oct. 18, 2012 Rise Set
Actual Time 6:56 AM PDT 6:02 PM PDT
Civil Twilight 6:30 AM PDT 6:29 PM PDT
Nautical Twilight 5:59 AM PDT 6:59 PM PDT
Astronomical Twilight 5:29 AM PDT 7:30 PM PDT
Moon 10:39 AM PDT (10/18) 8:45 PM PDT (10/18)
Length of Visible Light 11h 59m
Length of Day
11h 06m
Waxing Crescent, 15% of the Moon is Illuminated
Oct 18
Waxing Crescent
Oct 21
First Quarter
Oct 29
Full
Nov 6
Last Quarter
Nov 13
New

Hourly Weather History & Observations

Time (PDT) Temp. Windchill Dew Point Humidity Pressure Visibility Wind Dir Wind Speed Gust Speed Precip Events Conditions
1:56 AM 39.0 °F 34.8 °F 21.0 °F 49% 29.83 in 10.0 mi West 5.8 mph - N/A   Clear
2:56 AM 39.0 °F 35.7 °F 21.0 °F 49% 29.82 in 10.0 mi WSW 4.6 mph - N/A   Clear
3:56 AM 36.0 °F - 21.9 °F 57% 29.83 in 10.0 mi Calm Calm - N/A   Clear
4:56 AM 36.0 °F 31.1 °F 21.0 °F 55% 29.84 in 10.0 mi SSW 5.8 mph - N/A   Partly Cloudy
5:56 AM 33.1 °F 28.7 °F 21.9 °F 64% 29.89 in 10.0 mi SW 4.6 mph - N/A   Clear
6:56 AM 33.1 °F 28.7 °F 21.0 °F 61% 29.90 in 10.0 mi West 4.6 mph - N/A   Clear
7:56 AM 42.1 °F 40.2 °F 21.0 °F 43% 29.90 in 10.0 mi SSW 3.5 mph - N/A   Clear
8:56 AM 46.9 °F - 18.0 °F 32% 29.90 in 10.0 mi Variable 3.5 mph - N/A   Clear
9:56 AM 53.1 °F - 19.0 °F 26% 29.90 in 10.0 mi ENE 3.5 mph - N/A   Clear
10:56 AM 59.0 °F - 16.0 °F 19% 29.87 in 10.0 mi ENE 9.2 mph - N/A   Clear
11:56 AM 63.0 °F - 14.0 °F 15% 29.88 in 10.0 mi NE 8.1 mph - N/A   Clear
12:56 PM 64.9 °F - 14.0 °F 14% 29.85 in 10.0 mi Variable 5.8 mph - N/A   Clear
1:56 PM 66.0 °F - 10.9 °F 12% 29.83 in 10.0 mi Calm Calm - N/A   Clear
2:56 PM 68.0 °F - 15.1 °F 13% 29.81 in 10.0 mi Variable 5.8 mph - N/A   Clear
3:56 PM 69.1 °F - 15.1 °F 13% 29.81 in 10.0 mi NE 3.5 mph - N/A   Clear
4:56 PM 68.0 °F - 16.0 °F 14% 29.80 in 10.0 mi ENE 4.6 mph - N/A   Clear
5:56 PM 60.1 °F - 24.1 °F 25% 29.83 in 10.0 mi NNE 6.9 mph - N/A   Clear
6:56 PM 51.1 °F - 24.1 °F 35% 29.87 in 10.0 mi NW 9.2 mph - N/A   Clear
7:56 PM 48.9 °F - 24.1 °F 38% 29.84 in 10.0 mi NW 10.4 mph - N/A   Clear
8:56 PM 46.9 °F - 24.1 °F 41% 29.83 in 10.0 mi NW 11.5 mph - N/A   Clear
9:56 PM 46.0 °F 41.4 °F 24.1 °F 42% 29.82 in 10.0 mi NW 9.2 mph - N/A   Clear
10:56 PM 45.0 °F 40.1 °F 24.1 °F 44% 29.81 in 10.0 mi NW 9.2 mph - N/A   Clear
11:56 PM 43.0 °F 36.8 °F 25.0 °F 49% 29.80 in 10.0 mi NW 11.5 mph - N/A   Clear